Reading, PA

7:32 PM EST on December 12, 2019 (GMT -0500)
Reading Regional-Spaatz

Weather History for KRDG - August, 2019

Change the Weather History Date:

Sunday, August 25, 2019

  Actual Average Record
Temperature  
Mean Temperature 68 °F 72 °F  
Max Temperature 78 °F 83 °F 96 °F (1909)
Min Temperature 57 °F 62 °F 45 °F (1971)
Degree Days  
Heating Degree Days 0 0  
Month to date heating degree days 0 0  
Since 1 June heating degree days 16 25  
Since 1 July heating degree days 0 1  
Cooling Degree Days 2 7  
Month to date cooling degree days 290 211  
Year to date cooling degree days 1028 763  
Since 1 June cooling degree days 923 703  
Growing Degree Days 18 (Base 50)    
Moisture  
Dew Point 57 °F    
Average Humidity 69    
Maximum Humidity 96    
Minimum Humidity 43    
Precipitation  
Precipitation 0.00 in 0.12 in 2.30 in (1905)
Month to date precipitation 1.79 2.96  
Year to date precipitation 40.08 28.28  
Sea Level Pressure  
Sea Level Pressure 30.23 in    
Wind  
Wind Speed 5 mph ()    
Max Wind Speed 16 mph    
Max Gust Speed 22 mph    
Visibility 10.0 miles    
Events      
T = Trace of Precipitation, MM = Missing Value Source: Averaged Metar Reports

Daily Weather History Graph

Daily Weather History Graph

Search for Another Location

Airport or City:

Astronomy

Aug. 25, 2019 Rise Set
Actual Time 6:24 AM EDT 7:46 PM EDT
Civil Twilight 5:55 AM EDT 8:15 PM EDT
Nautical Twilight 5:21 AM EDT 8:49 PM EDT
Astronomical Twilight 4:45 AM EDT 9:25 PM EDT
Moon 12:56 AM EDT (8/25) 4:05 PM EDT (8/25)
Length of Visible Light 14h 19m
Length of Day
13h 22m
Waning Crescent, 29% of the Moon is Illuminated
Aug 25
Waning Crescent
Aug 30
New
Sep 5
First Quarter
Sep 14
Full
Sep 21
Last Quarter

Hourly Weather History & Observations

Time (EDT) Temp. Dew Point Humidity Pressure Visibility Wind Dir Wind Speed Gust Speed Precip Events Conditions
12:54 AM 62.1 °F 57.0 °F 84% 30.25 in 10.0 mi NNW 3.5 mph - N/A   Mostly Cloudy
1:54 AM 62.1 °F 57.9 °F 86% 30.24 in 10.0 mi NNW 4.6 mph - N/A   Overcast
2:54 AM 61.0 °F 55.9 °F 83% 30.23 in 10.0 mi North 4.6 mph - N/A   Partly Cloudy
3:54 AM 60.1 °F 55.9 °F 86% 30.23 in 10.0 mi North 4.6 mph - N/A   Clear
4:54 AM 57.9 °F 55.9 °F 93% 30.23 in 10.0 mi Calm Calm - N/A   Mostly Cloudy
5:54 AM 57.0 °F 55.9 °F 96% 30.24 in 10.0 mi Calm Calm - N/A   Clear
7:54 AM 62.1 °F 59.0 °F 90% 30.28 in 10.0 mi North 5.8 mph - N/A   Clear
8:54 AM 64.9 °F 57.9 °F 78% 30.29 in 10.0 mi North 6.9 mph - N/A   Partly Cloudy
9:54 AM 68.0 °F 57.9 °F 70% 30.28 in 10.0 mi NE 10.4 mph - N/A   Partly Cloudy
10:54 AM 72.0 °F 57.0 °F 59% 30.27 in 10.0 mi East 11.5 mph - N/A   Partly Cloudy
11:54 AM 73.9 °F 57.0 °F 55% 30.26 in 10.0 mi NE 9.2 mph 21.9 mph N/A   Scattered Clouds
12:54 PM 75.0 °F 55.9 °F 51% 30.24 in 10.0 mi NE 15.0 mph 21.9 mph N/A   Scattered Clouds
1:54 PM 75.9 °F 55.9 °F 50% 30.23 in 10.0 mi NE 11.5 mph - N/A   Scattered Clouds
2:54 PM 77.0 °F 55.9 °F 48% 30.21 in 10.0 mi ESE 11.5 mph 18.4 mph N/A   Scattered Clouds
3:54 PM 78.1 °F 55.9 °F 46% 30.20 in 10.0 mi SE 10.4 mph 16.1 mph N/A   Scattered Clouds
4:54 PM 77.0 °F 54.0 °F 45% 30.20 in 10.0 mi ENE 10.4 mph - N/A   Scattered Clouds
6:54 PM 73.0 °F 55.0 °F 53% 30.20 in 10.0 mi ENE 3.5 mph - N/A   Partly Cloudy
7:54 PM 71.1 °F 55.0 °F 57% 30.20 in 10.0 mi ENE 4.6 mph - N/A   Clear
8:54 PM 68.0 °F 55.9 °F 65% 30.21 in 10.0 mi Calm Calm - N/A   Clear
9:54 PM 64.9 °F 57.0 °F 75% 30.22 in 10.0 mi North 3.5 mph - N/A   Clear
10:54 PM 66.0 °F 57.9 °F 75% 30.22 in 10.0 mi Variable 3.5 mph - N/A   Scattered Clouds
11:54 PM 64.9 °F 59.0 °F 81% 30.23 in 10.0 mi Calm Calm - N/A   Overcast